Prescott, AZ

11:04 AM MST on February 24, 2017 (GMT -0700)
Love

Weather History for KPRC - October, 2013

Change the Weather History Date:

Tuesday, October 8, 2013

  Actual Average Record
Temperature  
Mean Temperature 59 °F 59 °F  
Max Temperature 74 °F 74 °F 91 °F (1996)
Min Temperature 44 °F 44 °F 31 °F (1970)
Degree Days  
Heating Degree Days 6    
Month to date heating degree days 56  
Since 1 July heating degree days 106  
Cooling Degree Days 0    
Month to date cooling degree days 0  
Year to date cooling degree days 1127  
Growing Degree Days 9 (Base 50)    
Moisture  
Dew Point 25 °F    
Average Humidity 29    
Maximum Humidity 49    
Minimum Humidity 14    
Precipitation  
Precipitation 0.00 in 0.02 in 0.59 in (1960)
Month to date precipitation 0.00 0.28  
Year to date precipitation 10.70 11.45  
Sea Level Pressure  
Sea Level Pressure 29.81 in    
Wind  
Wind Speed 8 mph (South)    
Max Wind Speed 22 mph    
Max Gust Speed 30 mph    
Visibility 10 miles    
Events      
T = Trace of Precipitation, MM = Missing Value Source: NWS Daily Summary

Daily Weather History Graph

Daily Weather History Graph

Search for Another Location

Airport or City:

Trip Planner

Search our weather history database for the weather conditions in past years. The results will help you decide how hot, cold, wet, or windy it might be!

Date:

Astronomy

Oct. 08, 2013 Rise Set
Actual Time 6:29 AM MST 6:03 PM MST
Civil Twilight 6:04 AM MST 6:28 PM MST
Nautical Twilight 5:35 AM MST 6:58 PM MST
Astronomical Twilight 5:06 AM MST 7:27 PM MST
Moon 10:19 AM MST (10/8) 8:53 PM MST (10/8)
Length of Visible Light 12h 24m
Length of Day
11h 33m
Waxing Crescent, 17% of the Moon is Illuminated
Oct 8
Waxing Crescent
Oct 11
First Quarter
Oct 18
Full
Oct 26
Last Quarter
Nov 3
New

Hourly Weather History & Observations

Time (MST) Temp. Windchill Dew Point Humidity Pressure Visibility Wind Dir Wind Speed Gust Speed Precip Events Conditions
12:53 AM 48.0 °F - 24.1 °F 39% 29.88 in 10.0 mi South 8.1 mph - N/A   Clear
1:53 AM 48.9 °F - 21.9 °F 35% 29.87 in 10.0 mi South 9.2 mph - N/A   Clear
2:53 AM 46.0 °F 43.1 °F 24.1 °F 42% 29.86 in 10.0 mi South 5.8 mph - N/A   Clear
3:53 AM 45.0 °F 42.6 °F 25.0 °F 46% 29.85 in 10.0 mi South 4.6 mph - N/A   Clear
4:53 AM 48.0 °F - 24.1 °F 39% 29.85 in 10.0 mi South 4.6 mph - N/A   Clear
5:53 AM 45.0 °F 41.8 °F 26.1 °F 48% 29.87 in 10.0 mi South 5.8 mph - N/A   Clear
6:53 AM 45.0 °F 42.6 °F 25.0 °F 46% 29.88 in 10.0 mi SSW 4.6 mph - N/A   Clear
7:53 AM 62.1 °F - 25.0 °F 24% 29.85 in 10.0 mi South 8.1 mph - N/A   Clear
8:53 AM 66.0 °F - 27.0 °F 23% 29.85 in 10.0 mi Calm Calm - N/A   Clear
9:53 AM 69.1 °F - 26.1 °F 20% 29.85 in 10.0 mi South 16.1 mph 28.8 mph N/A   Clear
10:53 AM 71.1 °F - 21.9 °F 16% 29.85 in 10.0 mi SSW 17.3 mph 23.0 mph N/A   Clear
11:53 AM 72.0 °F - 23.0 °F 16% 29.84 in 10.0 mi South 15.0 mph 21.9 mph N/A   Clear
12:53 PM 73.0 °F - 21.0 °F 14% 29.81 in 10.0 mi South 12.7 mph 23.0 mph N/A   Clear
1:53 PM 73.0 °F - 21.0 °F 14% 29.78 in 10.0 mi South 10.4 mph 23.0 mph N/A   Clear
2:53 PM 72.0 °F - 21.9 °F 15% 29.78 in 10.0 mi South 18.4 mph 24.2 mph N/A   Clear
3:53 PM 71.1 °F - 23.0 °F 16% 29.77 in 10.0 mi South 9.2 mph 19.6 mph N/A   Clear
4:53 PM 69.1 °F - 23.0 °F 18% 29.75 in 10.0 mi South 11.5 mph 19.6 mph N/A   Clear
5:53 PM 66.0 °F - 23.0 °F 20% 29.77 in 10.0 mi South 10.4 mph - N/A   Clear
6:53 PM 62.1 °F - 24.1 °F 23% 29.78 in 10.0 mi South 6.9 mph - N/A   Clear
7:53 PM 59.0 °F - 26.1 °F 28% 29.74 in 10.0 mi SSE 4.6 mph - N/A   Clear
8:53 PM 59.0 °F - 28.0 °F 31% 29.73 in 10.0 mi SE 4.6 mph - N/A   Clear
9:53 PM 53.1 °F - 30.9 °F 43% 29.73 in 10.0 mi Calm Calm - N/A   Clear
10:53 PM 52.0 °F - 30.9 °F 45% 29.71 in 10.0 mi Calm Calm - N/A   Clear
11:53 PM 54.0 °F - 30.0 °F 40% 29.69 in 10.0 mi SSE 8.1 mph - N/A   Clear